Regional Weather Roundup
Issued by NWS

Home | Current Version | Previous Version | Graphics & Text | Print | Product List | Glossary On
Versions: 1 2 3 4 5 6 7 8 9 10 11 12 13 14 15 16 17 18 19 20 21 22 23 24 25 26 27 28 29 30 31 32 33 34 35 36 37 38 39 40 41 42 43 44 45 46 47 48 49
000
ASUS45 KBOU 260007
RWRCO

WEATHER ROUNDUP FOR COLORADO
NATIONAL WEATHER SERVICE DENVER/BOULDER CO
500 PM MST WED FEB 25 2015

NOTE: "FAIR" INDICATES FEW OR NO CLOUDS BELOW 12000 FEET WITH NO
SIGNIFICANT WEATHER AND/OR OBSTRUCTIONS TO VISIBILITY.

COZ001>005-013-030-031-260100-
...NORTHWEST COLORADO...

CITY           SKY/WX    TMP DP  RH WIND       PRES   REMARKS
CRAIG          LGT SNOW  31  28  89 N9        29.99R FOG     WCI  23
HAYDEN         CLOUDY    30  27  86 W12       29.95S WCI  21
MEEKER         MOCLDY    36  25  64 N16G24    29.96R
MOUNT WERNER   NOT AVBL
STEAMBOAT SPGS CLOUDY    30  24  77 W3        29.94R
WALDEN         CLOUDY    21  16  79 N8        29.95R VSB 1   WCI  12
$$

COZ006>008-011-260100-
...WEST CENTRAL VALLEYS...

CITY           SKY/WX    TMP DP  RH WIND       PRES   REMARKS
GRAND JUNCTION PTSUNNY   45  24  43 SW6       29.94S
MONTROSE       MOSUNNY   38  25  59 E6        29.98S
EAGLE          MOCLDY    36  25  64 NW14G33   29.93S
RIFLE          PTSUNNY   39  28  64 W12       29.94S
DELTA          MOSUNNY   40  30  65 CALM      29.98S
NUCLA          MOSUNNY   43  25  49 CALM      30.00S
$$

COZ017>023-064>068-260100-
...SOUTHWEST COLORADO...

CITY           SKY/WX    TMP DP  RH WIND       PRES   REMARKS
DURANGO        SUNNY     36  26  67 E5        29.91R
CORTEZ         SUNNY     41  27  57 W9        29.97S
PAGOSA SPRINGS CLOUDY    32  30  91 E3        29.93S
TELLURIDE      LGT SNOW  27  23  85 W14       29.98F WCI  16
WOLF CREEK PAS CLOUDY    18  16  93 CALM      29.95R
$$

COZ009-010-012-014-032>034-037-058>063-260100-
...CENTRAL COLORADO...

CITY           SKY/WX    TMP DP  RH WIND       PRES   REMARKS
ASPEN          MOCLDY    33  16  49 NW9       29.91S WCI  25
BUENA VISTA    PTCLDY    33  18  52 NW22G29   29.86R WCI  21
COPPER MTN     CLOUDY    19  14  79 W16G23    29.88R WCI   5
BERTHOUD PASS  SNOW       9   1  72 MISG      29.87R VSB 1/4
COTTONWOOD PAS PTCLDY    32   3  29 W15G28    29.87R WCI  22
GUNNISON       MOCLDY    32  19  59 W7        29.96R WCI  26
KREMMLING      CLOUDY    30  21  69 N9        29.93R WCI  22
LEADVILLE      LGT SNOW  20  16  84 VRB6      29.89S FOG     WCI  12
MONARCH PASS   CLOUDY    18  14  86 W36G67    29.97R WCI  -3
SALIDA         CLOUDY    35  26  71 SW8       29.95R WCI  28
SUNLIGHT       LGT SNOW  21  19  93 SW3         N/A
WILKERSON PASS FOG       18  14  86 CALM      29.91R VSB 3/4
$$

COZ069>075-260100-
...SAN LUIS VALLEY/SANGRE DE CRISTO MOUNTAINS...

CITY           SKY/WX    TMP DP  RH WIND       PRES   REMARKS
ALAMOSA        PTCLDY    30  20  66 SW3       29.89R
LA VETA PASS   FOG       21  19  93 MISG      29.89R VSB 1/4
SAGUACHE       CLOUDY    32  21  64 SE12      29.88S WCI  23
$$

COZ035-036-038>040-260100-
...NORTHERN COLORADO FRONT RANGE...

CITY           SKY/WX    TMP DP  RH WIND       PRES   REMARKS
DENVER INTL AP SNOW      28  27  96 N16       30.00R VSB 1/4 WCI  16
DMNS CITY PARK   N/A     28  28  99 N13       30.03R WCI  17
AURORA         LGT SNOW  28  27  99 N18G25    30.00R FOG     WCI  15
FRONT RANGE AP SNOW      30  30 100 N17G25    30.00  VSB 1/2 WCI  18
ERIE MUNI ARPT SNOW      30  29  98 N5        30.04R VSB 1/2 WCI  25
BOULDER MUN AP SNOW      30  30 100 SE3       30.03R VSB 1/4
CENTENNIAL     SNOW      28  27  96 N20G33    29.99R VSB 1/2 WCI  15
BROOMFIELD     SNOW      28  28 100 N12       30.03R VSB 1/2 WCI  18
FORT COLLINS   CLOUDY    34  21  60 N17       30.03R WCI  23
LONGMONT       LGT SNOW  32  30  92 CALM      30.05R
$$

COZ041-046-047-076>085-087-088-260100-
...PIKES PEAK/PALMER DIVIDE AND SOUTHERN FOOTHILLS...

CITY           SKY/WX    TMP DP  RH WIND       PRES   REMARKS
COLO. SPRINGS  CLOUDY    33  26  75 NE14      29.94R WCI  23
A. F. ACADEMY  LGT SNOW  29  26  86 N16       29.92R FOG     WCI  18
ELLICOTT       NOT AVBL
FALCON         LGT SNOW  28  26  91 N17G25    29.93R VSB 1   WCI  15
FORT CARSON    SNOW      33  28  80 N14       29.93R VSB 1/4 WCI  23
LIMON          LGT SNOW  30  27  88 N21       29.96R VSB 1   WCI  17
MONUMENT HILL  SNOW      25  23  93 NE14G26   29.94R VSB 1/2 WCI  13
TRINIDAD       LGT SNOW  33  31  92 NE10      29.92R VSB 1   WCI  25
$$

COZ042>045-048>051-090-091-260100-
...NORTHEAST COLORADO...

CITY           SKY/WX    TMP DP  RH WIND       PRES   REMARKS
GREELEY ARPT   CLOUDY    34  21  60 N14       30.01R WCI  24
AKRON          CLOUDY    30  24  78 NE16      29.99R WCI  19
BURLINGTON     LGT SNOW  34  29  82 NE17G30   29.95R WCI  23
WRAY           CLOUDY    34  23  62 N15G24    30.01R WCI  25
STERLING       CLOUDY    32  27  80 NE9       29.99R WCI  24
HOLYOKE        NOT AVBL
FORT MORGAN    LGT SNOW  33  26  74 NE8       30.02R WCI  26
$$

COZ086-089-092>099-260100-
...SOUTHEAST COLORADO...

CITY           SKY/WX    TMP DP  RH WIND       PRES   REMARKS
PUEBLO         CLOUDY    38  26  62 N17G24    29.93R
LA JUNTA       CLOUDY    43  31  62 N7        29.92R
LAMAR          CLOUDY    42  33  70 NE12      29.91R
SPRINGFIELD      N/A     39  32  76 N12       29.90R
$$



USA.gov is the U.S. government's official web portal to all federal, state and local government web resources and services.